SCP
0 0 -0 -0 -0 -0 -0 -0 -0 0 0 0 0 0 0 0 0 -0 -0 -0 0 0 0 -0 0 0 0 0 0 0 -0 -0 0 0 -0 -0 -0 -0 -0 -0 -0 -0 -0 -0 -0 -0 -0 -0 -0
0 0 -0 -0 -0 -0 0 -0 -0 0 0 0 0 0 0 0 0 -0 0 0 0 0 0 0 0 0 0 0 0 -0 -0 -0 0 -0 -0 -0 -0 -0 -0 -0 -0 -0 -0 -0 -0 -0 -0 -0 -0
0 -0 0 0 0 0 0 -0 0 0 0 0 0 0 0 0 0 0 -0 0 0 -0 -0 0 0 0 0 0 -0 -0 -0 -0 0 0 0 -0 -0 -0 -0 -0 -0 0 -0 -0 -0 -0 -0 -0 -0
0 0 0 0 0 0 0 0 0 -0 0 0 0 0 -0 0 0 0 -0 0 0 -0 -0 0 0 0 0 0 -0 -0 -0 -0 0 0 0 -0 -0 -0 -0 -0 0 -0 -0 -0 -0 -0 -0 -0 -0
-0 -0 0 0 0 0 0 0 0 -0 0 -0 -0 -0 0 -0 -0 -0 0 0 -0 0 -0 -0 0 0 0 0 0 0 0 0 0 0 0 0 0 0 0 0 -0 -0 -0 -0 -0 -0 -0 -0 -0
0 0 0 0 0 0 0 0 0 0 0 -0 -0 0 0 0 -0 -0 -0 -0 -0 -0 -0 -0 -0 0 0 0 0 0 0 -0 -0 -0 -0 0 0 0 0 0 -0 -0 -0 -0 -0 -0 -0 -0 -0
0 0 0 0 0 0 0 0 0 0 0 0 0 0 0 0 0 0 -0 -0 -0 -0 -0 -0 -0 0 0 0 0 0 -0 -0 -0 -0 -0 0 0 0 -0 -0 0 -0 -0 -0 -0 -0 -0 -0 -0
0 0 0 0 0 0 0 0 0 0 0 0 0 0 0 0 0 -0 0 0 0 -0 -0 -0 0 0 0 0 0 0 0 0 0 0 0 0 0 0 0 0 -0 -0 -0 -0 -0 -0 -0 0 0
0 0 0 0 0 0 0 0 0 0 0 0 0 0 0 -0 -0 0 0 0 0 0 -0 0 0 0 0 0 0 0 0 0 0 0 0 0 0 0 0 0 -0 -0 -0 -0 -0 -0 0 0 0
0 0 0 0 0 0 0 0 0 0 0 0 0 0 0 0 0 0 0 0 0 -0 -0 -0 0 0 0 0 0 0 0 0 0 0 0 0 0 0 0 -0 -0 -0 -0 -0 0 0 0 0 0
0 0 0 0 0 0 0 0 0 0 0 0 0 0 0 0 0 0 0 0 -0 -0 -0 -0 -0 -0 0 0 0 0 0 0 0 0 0 0 0 0 0 0 0 0 0 0 0 0 0 0 0
0 0 0 0 0 0 0 0 0 0 0 0 0 0 0 0 0 0 0 0 0 -0 -0 -0 -0 -0 -0 0 0 0 0 0 0 0 0 0 0 0 0 0 0 0 0 0 0 0 0 0 0
0 0 0 0 0 0 0 0 0 0 0 0 0 0 0 0 0 0 0 0 0 0 0 -0 0 0 0 0 0 0 0 0 0 0 0 0 0 0 0 0 0 0 0 0 0 0 0 0 0
0 0 0 0 0 0 0 0 0 0 0 0 0 0 0 0 0 0 0 0 0 0 0 0 0 0 0 0 0 0 0 0 0 0 0 0 0 0 0 0 0 0 0 0 0 0 0 0 0
0 0 0 0 0 0 0 0 0 0 0 0 0 0 0 0 0 0 0 0 0 0 0 0 0 0 0 0 0 0 0 0 0 0 0 0 0 0 0 0 0 0 0 0 0 0 0 0 0
0 0 0 0 0 0 0 0 0 0 0 0 0 0 0 0 0 0 0 0 0 0 0 0 0 0 0 0 0 0 0 0 0 0 0 0 0 0 0 0 0 0 0 0 0 0 0 0 0
0 0 0 0 0 0 0 0 0 0 0 0 0 0 0 0 0 0 0 0 0 0 0 0 0 0 0 0 0 0 0 0 0 0 0 0 0 0 0 0 0 0 0 0 0 0 0 0 0
0 0 0 0 0 0 0 0 0 0 0 0 0 0 0 0 0 0 0 0 0 0 0 0 0 0 0 0 0 0 0 0 0 0 0 0 0 0 0 0 0 0 0 0 0 0 0 0 0
0 0 0 0 0 0 0 0 0 0 0 0 0 0 0 0 0 0 0 0 0 0 0 0 0 0 0 0 0 0 0 0 0 0 0 0 0 0 0 0 0 0 0 0 0 0 0 0 0
0 0 0 0 0 0 0 0 0 0 0 0 0 0 0 0 0 0 0 0 0 0 0 0 0 0 0 0 0 0 0 0 0 0 0 0 0 0 0 0 0 0 0 0 0 0 0 0 0
0 0 0 0 0 0 0 0 0 0 0 0 0 0 0 0 0 0 0 0 0 0 0 0 0 0 0 0 0 0 0 0 0 0 0 0 0 0 0 0 0 0 0 0 0 0 0 0 0
0 0 0 0 0 0 0 -0 0 0 0 0 0 -0 -0 0 0 0 0 0 0 0 0 0 0 0 0 0 0 0 0 0 0 0 0 0 0 0 0 0 0 0 0 0 0 0 0 0 0
0 0 0 0 0 0 0 0 -0 0 0 0 0 0 -0 0 0 0 0 0 0 0 0 0 0 0 0 0 0 0 0 0 0 0 0 0 0 0 0 0 0 0 0 0 0 0 0 0 0
0 0 0 0 0 0 0 0 -0 0 0 0 0 0 0 0 0 0 0 0 0 0 0 0 0 0 0 0 0 0 0 0 0 0 0 0 0 0 0 0 0 0 0 0 0 0 0 0 0
0 0 0 0 0 0 0 0 0 0 -0 0 0 0 0 0 0 0 0 0 0 0 0 0 0 0 0 0 0 0 0 0 0 0 0 0 0 0 0 0 0 0 0 0 0 0 0 0 0
0 0 0 0 0 0 0 0 0 0 0 0 0 0 0 0 0 0 0 0 0 0 0 0 0 0 0 0 0 0 0 0 0 0 0 0 0 0 0 0 0 0 0 0 0 0 0 0 0
0 0 0 0 0 0 0 0 0 0 0 0 0 0 0 0 0 0 0 0 0 0 0 0 0 0 0 0 0 0 0 0 0 0 0 0 0 0 0 0 0 0 0 0 0 0 0 0 0
0 0 0 0 0 0 -0 0 0 0 0 0 0 0 0 0 0 0 0 0 0 0 0 0 0 0 0 0 0 0 0 0 0 0 0 0 0 0 0 0 0 0 0 0 0 0 0 0 0
0 0 0 0 0 0 0 0 0 -0 -0 -0 0 0 0 0 0 0 0 0 0 0 0 0 0 0 0 0 0 0 0 0 0 0 0 0 0 0 0 0 0 0 0 0 0 0 0 0 0
0 0 0 0 0 0 0 0 0 0 0 0 0 0 0 0 0 0 0 0 0 0 0 0 0 0 0 0 0 0 0 0 0 0 0 0 0 0 0 0 0 0 0 0 0 0 0 0 0
Wind_Speed_500mb
39 37 28 10 4 2 4 5 2 15 10 4 14 6 3 6 8 6 19 35 31 28 26 23 23 24 25 25 21 16 11 9 9 11 12 15 16 21 30 32 28 30 27 28 33 31 34 37 36
40 36 16 3 5 5 7 5 11 12 9 12 12 4 4 3 3 4 27 36 31 26 26 23 26 25 24 22 19 14 13 10 7 10 13 16 20 25 34 30 23 30 23 28 31 33 34 35 34
33 28 9 5 2 6 6 8 10 7 17 14 8 1 0 0 3 18 22 36 35 26 26 26 27 26 24 21 17 15 10 7 8 10 14 21 23 29 31 26 23 28 25 28 32 31 32 32 31
24 10 4 6 7 3 6 2 16 22 5 9 6 5 2 9 5 19 34 35 32 29 24 29 29 26 26 25 19 17 9 5 7 9 14 19 19 22 28 24 22 27 23 28 29 29 29 29 30
14 5 6 5 6 3 5 1 21 23 11 9 10 6 3 6 14 30 37 32 28 28 27 25 30 28 26 25 21 17 9 8 11 12 17 18 20 23 26 23 22 28 24 25 27 26 26 26 27
2 2 9 11 7 5 6 6 19 20 8 9 8 7 8 15 22 32 35 29 28 27 30 26 28 28 27 25 22 18 12 9 9 13 17 18 18 18 21 22 22 23 22 22 22 23 23 23 20
8 4 10 9 14 9 6 13 17 19 12 12 5 7 5 24 28 34 34 31 30 30 29 31 32 32 30 27 25 20 15 13 11 16 20 19 17 17 17 16 17 19 19 19 18 19 19 18 15
6 10 10 8 8 6 6 9 2 14 10 7 12 6 4 26 34 43 37 33 33 32 30 31 33 35 34 34 29 24 17 22 17 16 18 17 16 17 17 16 16 15 15 15 15 15 15 13 10
9 11 16 18 13 2 3 9 2 7 7 11 14 6 9 24 42 45 40 37 37 37 36 35 39 41 41 37 33 26 19 24 20 17 16 16 16 16 15 13 12 12 13 13 12 12 10 8 6
15 14 22 18 14 9 3 6 6 8 12 14 14 22 17 30 46 49 48 43 41 41 42 39 38 42 40 36 31 29 25 27 26 24 20 19 16 15 14 13 12 11 11 11 9 7 5 3 2
6 20 8 13 21 16 14 10 7 9 16 20 16 23 27 37 50 51 46 40 37 36 38 37 36 36 37 37 36 32 27 29 28 25 23 22 20 18 18 17 14 12 12 11 8 4 2 3 5
12 19 11 12 11 12 15 13 10 16 16 9 9 18 28 38 53 57 52 43 41 42 39 38 38 37 38 35 31 29 28 29 29 28 27 25 22 20 19 20 19 17 15 12 8 7 7 9 10
17 18 18 15 20 14 12 18 14 20 24 22 30 21 33 36 47 54 51 48 44 46 46 46 45 43 41 38 35 33 32 30 28 29 27 25 24 23 23 23 23 20 18 15 12 11 11 13 14
7 27 21 16 29 16 16 23 16 20 17 15 27 34 30 39 41 47 52 56 54 47 46 46 46 42 40 39 37 35 34 32 31 31 28 27 26 24 23 23 24 23 20 17 16 16 15 16 17
13 19 18 29 25 16 12 26 29 41 30 30 25 28 36 39 43 48 52 58 56 52 47 47 47 46 44 41 39 38 36 34 32 30 30 30 29 26 24 23 24 23 22 21 20 19 18 19 20
13 18 33 27 27 19 20 42 37 37 34 41 39 33 34 41 46 47 49 55 58 57 55 49 49 49 47 45 42 42 41 39 36 34 33 32 30 28 27 26 24 25 24 23 21 21 21 22 23
22 36 43 41 23 20 32 33 45 38 31 38 43 48 43 40 44 51 52 52 58 59 58 56 53 52 52 50 48 46 45 45 42 40 38 35 34 32 31 29 28 28 28 26 26 25 25 25 26
38 42 36 30 22 23 33 36 36 21 33 52 49 46 46 47 53 48 52 54 56 59 63 61 59 56 55 54 55 55 56 53 52 49 46 42 41 38 37 35 33 33 33 32 31 29 29 29 29
32 28 36 31 22 19 37 40 44 48 43 40 36 37 52 53 68 57 53 54 58 61 64 69 69 66 61 62 64 65 66 61 59 57 55 50 48 44 43 41 39 40 41 37 35 35 37 34 33
27 33 31 21 25 21 35 38 42 48 52 53 57 56 55 54 60 63 67 63 64 65 66 67 71 71 71 71 69 67 65 65 61 59 59 56 54 52 50 47 46 47 46 45 44 43 41 40 38
39 36 34 24 9 24 25 44 47 51 56 65 68 68 66 66 57 56 66 71 68 69 72 75 73 70 76 76 72 73 71 71 67 66 64 61 59 57 55 52 53 53 52 52 49 47 46 47 39
38 50 47 26 11 26 17 32 40 32 34 50 72 75 80 78 76 73 61 72 72 72 71 74 77 77 80 78 80 83 83 82 71 67 69 63 62 61 61 60 58 58 56 57 55 52 50 52 54
32 35 38 50 35 25 38 21 35 40 53 51 59 67 76 80 81 91 86 89 82 77 74 75 74 80 83 85 83 85 85 80 72 73 72 66 63 60 62 62 61 63 63 61 58 57 56 57 58
12 10 26 29 28 22 54 36 37 42 51 39 50 66 67 69 70 81 89 98 92 84 81 78 83 82 82 85 84 86 83 79 82 79 77 71 65 63 60 59 58 58 61 62 60 60 61 60 60
22 14 8 17 16 23 38 30 46 27 42 46 43 57 58 54 59 67 78 99 103 97 92 88 85 90 88 89 88 87 81 81 84 81 76 73 67 64 55 53 52 51 50 51 54 57 58 58 60
47 18 7 11 13 33 10 19 23 38 66 81 67 56 52 37 45 58 71 79 88 108 100 99 99 93 89 89 86 85 83 82 84 81 76 74 69 61 51 49 45 44 45 46 48 50 53 54 55
11 27 32 14 1 3 7 31 23 23 23 42 64 63 65 65 70 63 54 68 77 87 96 96 100 101 100 97 89 85 83 84 82 74 70 70 64 57 52 47 46 47 48 48 49 51 50 46 40
26 13 8 11 11 20 26 34 23 18 35 37 33 45 58 64 63 59 67 66 69 65 72 79 82 86 98 98 93 87 83 81 77 76 73 67 60 56 52 50 48 47 49 49 50 49 41 38 38
22 17 10 1 7 5 9 19 9 32 32 35 35 47 50 49 65 60 58 58 62 63 62 69 77 83 84 94 93 87 82 79 75 73 72 68 61 56 55 52 52 50 49 49 48 44 42 45 41
35 39 39 9 9 5 4 19 3 8 11 20 31 45 37 38 43 46 50 42 52 51 55 58 64 72 72 74 81 79 73 72 69 65 63 65 62 59 56 56 55 54 51 45 48 47 45 44 41
Wind_Direction_500mb
348 352 353 5 245 312 89 135 9 147 176 165 151 195 310 6 341 25 157 166 161 162 156 148 144 147 147 142 139 136 131 122 132 127 109 106 113 113 113 105 99 95 108 98 96 101 93 91 92
348 351 354 340 293 323 79 134 196 150 132 140 153 155 217 72 99 136 149 164 166 166 161 156 149 151 152 150 147 134 121 103 121 136 110 118 121 118 112 111 107 103 97 98 100 96 93 93 97
347 352 341 356 7 10 14 188 164 142 137 164 171 215 210 25 204 167 167 167 163 170 169 166 156 156 157 154 152 141 117 84 112 134 128 123 119 117 111 113 105 102 110 97 96 98 95 96 96
358 348 25 304 328 64 324 126 161 157 171 182 172 181 271 194 177 168 166 167 164 165 175 171 164 167 165 160 156 154 140 96 106 115 123 129 125 122 119 123 118 110 109 99 99 98 100 101 95
15 359 303 295 314 314 291 250 174 174 154 191 200 175 200 206 185 171 167 168 171 169 167 182 167 172 173 165 164 159 155 131 128 131 128 124 125 125 126 123 124 120 116 100 101 106 104 97 94
108 357 270 278 303 309 288 203 174 187 166 168 212 181 179 196 172 172 171 172 174 177 169 175 177 178 175 170 170 170 158 143 129 127 129 119 118 123 124 131 117 115 112 113 113 106 101 98 97
161 237 288 286 296 289 345 164 188 195 185 202 187 216 210 197 181 179 177 177 183 181 180 175 183 182 178 177 175 182 186 176 160 133 141 139 133 121 111 114 122 128 128 122 112 109 104 101 97
134 183 236 242 277 306 20 198 190 210 202 199 189 229 224 203 183 179 184 185 187 183 185 178 183 179 177 182 183 187 188 185 176 158 149 147 143 141 140 141 142 143 134 127 128 116 104 100 96
173 228 210 235 211 171 29 237 215 219 204 196 203 218 222 197 185 185 188 190 191 189 183 189 184 190 188 188 195 208 215 197 179 177 158 153 159 163 158 155 153 151 149 151 137 118 112 105 98
225 239 233 187 192 180 170 230 273 223 209 226 219 225 220 195 195 195 196 194 196 196 187 189 191 194 197 204 210 219 223 203 191 193 189 186 181 182 189 182 177 173 168 167 160 142 120 94 33
243 237 243 194 178 177 180 183 196 234 233 238 249 223 216 198 201 205 206 204 203 200 196 190 190 193 197 206 209 215 222 207 196 201 203 204 202 202 200 200 198 194 195 193 193 190 239 292 283
230 248 244 203 196 183 200 166 191 218 242 257 283 225 227 210 211 211 210 207 204 201 198 195 192 194 194 201 207 208 205 204 202 205 208 210 210 211 210 207 206 207 209 214 224 250 275 284 284
232 244 231 220 209 223 214 211 212 234 250 264 261 254 233 226 220 216 215 216 211 208 199 197 200 198 199 197 200 204 204 205 207 211 212 212 212 214 211 212 212 214 217 223 233 254 270 279 285
280 238 244 236 239 227 242 243 196 225 238 258 251 247 242 234 228 218 215 216 216 217 210 206 205 208 207 203 202 205 207 206 209 210 210 213 213 216 216 217 218 220 225 234 243 256 265 273 281
243 261 248 244 242 246 237 247 235 233 234 246 258 246 244 240 227 229 226 221 220 219 218 215 215 210 212 213 211 212 212 214 215 216 213 214 217 216 219 221 222 226 231 236 245 256 267 275 283
226 242 248 237 220 236 220 254 243 237 226 238 240 241 244 243 238 232 228 227 223 222 223 220 221 221 220 219 219 220 220 220 219 220 222 220 220 222 225 228 229 232 236 241 248 257 265 272 279
219 237 230 237 216 240 217 252 249 239 222 235 235 239 238 241 243 237 231 230 227 225 226 224 223 225 226 225 226 227 227 227 226 224 226 228 228 229 231 233 233 236 240 243 249 255 263 272 278
225 228 238 239 203 222 243 246 253 249 245 243 239 241 241 236 244 245 240 231 229 226 227 229 227 226 227 229 229 230 231 230 230 229 228 229 232 233 236 237 238 241 244 248 252 259 264 268 273
257 245 242 236 243 231 242 244 252 250 244 245 244 233 244 242 245 240 243 239 232 230 227 228 229 227 226 227 229 230 233 233 235 233 233 230 234 235 239 241 242 245 248 252 255 258 261 269 274
244 243 241 254 239 233 259 256 261 253 248 248 252 249 244 246 243 240 235 235 238 236 232 231 232 232 230 230 232 234 238 239 239 241 241 238 238 239 242 244 246 247 251 253 256 258 265 268 269
227 237 232 243 234 244 272 268 261 259 252 252 251 250 251 245 242 237 236 237 239 240 241 235 234 235 235 233 234 236 239 240 238 240 243 242 241 243 246 246 248 251 252 254 257 260 263 266 268
231 220 236 236 245 254 216 277 262 263 260 244 247 243 243 242 238 236 234 238 239 241 244 243 239 236 237 235 234 236 239 242 244 246 247 247 247 248 249 250 251 254 256 257 259 261 263 265 266
240 227 227 235 237 262 253 265 266 253 259 248 245 242 241 239 235 236 237 241 242 243 242 244 242 240 238 238 237 238 241 245 247 247 249 249 249 248 250 251 253 255 256 258 260 261 261 263 267
249 239 229 231 233 231 239 221 253 246 253 259 252 244 244 243 239 239 238 244 245 244 241 238 236 238 238 239 240 239 243 245 245 245 249 250 249 248 247 249 251 254 256 257 258 260 262 263 265
203 192 220 204 205 230 229 229 239 264 244 251 254 254 250 247 242 239 238 238 241 242 240 239 238 239 239 240 242 242 243 243 245 247 249 251 251 251 249 249 252 255 258 259 258 259 261 263 264
221 217 213 239 184 231 135 233 240 243 245 259 256 257 258 255 257 249 239 244 239 241 243 244 241 239 238 240 241 243 242 242 244 244 247 249 250 251 252 249 250 252 254 254 255 257 259 261 263
168 216 230 289 336 310 214 258 277 236 243 249 252 257 255 257 262 256 245 248 249 244 246 246 245 243 239 239 244 245 241 238 241 243 245 248 249 249 247 247 247 248 250 253 253 255 259 262 264
216 168 161 193 249 243 215 248 247 215 231 240 247 247 254 259 264 260 255 251 251 251 250 247 245 246 244 243 241 243 241 239 240 241 242 244 246 246 245 245 245 245 247 248 250 255 256 256 262
189 210 199 244 198 254 259 240 253 222 215 236 247 254 263 265 265 275 273 260 254 252 248 244 237 239 241 241 240 239 237 237 239 241 242 242 243 244 245 245 244 244 244 245 248 249 251 254 261
204 216 210 230 211 247 329 266 105 307 319 284 281 285 288 278 278 275 272 264 243 249 248 240 234 236 241 241 236 236 235 235 239 242 241 238 238 242 242 242 243 243 244 241 245 248 244 254 252
Wind_Speed_850mb
39 37 28 10 4 2 4 5 2 15 10 4 14 6 3 6 8 6 19 35 31 28 26 23 23 24 25 25 21 16 11 9 9 11 12 15 16 21 30 32 28 30 27 28 33 31 34 37 36
40 36 16 3 5 5 7 5 11 12 9 12 12 4 4 3 3 4 27 36 31 26 26 23 26 25 24 22 19 14 13 10 7 10 13 16 20 25 34 30 23 30 23 28 31 33 34 35 34
33 28 9 5 2 6 6 8 10 7 17 14 8 1 0 0 3 18 22 36 35 26 26 26 27 26 24 21 17 15 10 7 8 10 14 21 23 29 31 26 23 28 25 28 32 31 32 32 31
24 10 4 6 7 3 6 2 16 22 5 9 6 5 2 9 5 19 34 35 32 29 24 29 29 26 26 25 19 17 9 5 7 9 14 19 19 22 28 24 22 27 23 28 29 29 29 29 30
14 5 6 5 6 3 5 1 21 23 11 9 10 6 3 6 14 30 37 32 28 28 27 25 30 28 26 25 21 17 9 8 11 12 17 18 20 23 26 23 22 28 24 25 27 26 26 26 27
2 2 9 11 7 5 6 6 19 20 8 9 8 7 8 15 22 32 35 29 28 27 30 26 28 28 27 25 22 18 12 9 9 13 17 18 18 18 21 22 22 23 22 22 22 23 23 23 20
8 4 10 9 14 9 6 13 17 19 12 12 5 7 5 24 28 34 34 31 30 30 29 31 32 32 30 27 25 20 15 13 11 16 20 19 17 17 17 16 17 19 19 19 18 19 19 18 15
6 10 10 8 8 6 6 9 2 14 10 7 12 6 4 26 34 43 37 33 33 32 30 31 33 35 34 34 29 24 17 22 17 16 18 17 16 17 17 16 16 15 15 15 15 15 15 13 10
9 11 16 18 13 2 3 9 2 7 7 11 14 6 9 24 42 45 40 37 37 37 36 35 39 41 41 37 33 26 19 24 20 17 16 16 16 16 15 13 12 12 13 13 12 12 10 8 6
15 14 22 18 14 9 3 6 6 8 12 14 14 22 17 30 46 49 48 43 41 41 42 39 38 42 40 36 31 29 25 27 26 24 20 19 16 15 14 13 12 11 11 11 9 7 5 3 2
6 20 8 13 21 16 14 10 7 9 16 20 16 23 27 37 50 51 46 40 37 36 38 37 36 36 37 37 36 32 27 29 28 25 23 22 20 18 18 17 14 12 12 11 8 4 2 3 5
12 19 11 12 11 12 15 13 10 16 16 9 9 18 28 38 53 57 52 43 41 42 39 38 38 37 38 35 31 29 28 29 29 28 27 25 22 20 19 20 19 17 15 12 8 7 7 9 10
17 18 18 15 20 14 12 18 14 20 24 22 30 21 33 36 47 54 51 48 44 46 46 46 45 43 41 38 35 33 32 30 28 29 27 25 24 23 23 23 23 20 18 15 12 11 11 13 14
7 27 21 16 29 16 16 23 16 20 17 15 27 34 30 39 41 47 52 56 54 47 46 46 46 42 40 39 37 35 34 32 31 31 28 27 26 24 23 23 24 23 20 17 16 16 15 16 17
13 19 18 29 25 16 12 26 29 41 30 30 25 28 36 39 43 48 52 58 56 52 47 47 47 46 44 41 39 38 36 34 32 30 30 30 29 26 24 23 24 23 22 21 20 19 18 19 20
13 18 33 27 27 19 20 42 37 37 34 41 39 33 34 41 46 47 49 55 58 57 55 49 49 49 47 45 42 42 41 39 36 34 33 32 30 28 27 26 24 25 24 23 21 21 21 22 23
22 36 43 41 23 20 32 33 45 38 31 38 43 48 43 40 44 51 52 52 58 59 58 56 53 52 52 50 48 46 45 45 42 40 38 35 34 32 31 29 28 28 28 26 26 25 25 25 26
38 42 36 30 22 23 33 36 36 21 33 52 49 46 46 47 53 48 52 54 56 59 63 61 59 56 55 54 55 55 56 53 52 49 46 42 41 38 37 35 33 33 33 32 31 29 29 29 29
32 28 36 31 22 19 37 40 44 48 43 40 36 37 52 53 68 57 53 54 58 61 64 69 69 66 61 62 64 65 66 61 59 57 55 50 48 44 43 41 39 40 41 37 35 35 37 34 33
27 33 31 21 25 21 35 38 42 48 52 53 57 56 55 54 60 63 67 63 64 65 66 67 71 71 71 71 69 67 65 65 61 59 59 56 54 52 50 47 46 47 46 45 44 43 41 40 38
39 36 34 24 9 24 25 44 47 51 56 65 68 68 66 66 57 56 66 71 68 69 72 75 73 70 76 76 72 73 71 71 67 66 64 61 59 57 55 52 53 53 52 52 49 47 46 47 39
38 50 47 26 11 26 17 32 40 32 34 50 72 75 80 78 76 73 61 72 72 72 71 74 77 77 80 78 80 83 83 82 71 67 69 63 62 61 61 60 58 58 56 57 55 52 50 52 54
32 35 38 50 35 25 38 21 35 40 53 51 59 67 76 80 81 91 86 89 82 77 74 75 74 80 83 85 83 85 85 80 72 73 72 66 63 60 62 62 61 63 63 61 58 57 56 57 58
12 10 26 29 28 22 54 36 37 42 51 39 50 66 67 69 70 81 89 98 92 84 81 78 83 82 82 85 84 86 83 79 82 79 77 71 65 63 60 59 58 58 61 62 60 60 61 60 60
22 14 8 17 16 23 38 30 46 27 42 46 43 57 58 54 59 67 78 99 103 97 92 88 85 90 88 89 88 87 81 81 84 81 76 73 67 64 55 53 52 51 50 51 54 57 58 58 60
47 18 7 11 13 33 10 19 23 38 66 81 67 56 52 37 45 58 71 79 88 108 100 99 99 93 89 89 86 85 83 82 84 81 76 74 69 61 51 49 45 44 45 46 48 50 53 54 55
11 27 32 14 1 3 7 31 23 23 23 42 64 63 65 65 70 63 54 68 77 87 96 96 100 101 100 97 89 85 83 84 82 74 70 70 64 57 52 47 46 47 48 48 49 51 50 46 40
26 13 8 11 11 20 26 34 23 18 35 37 33 45 58 64 63 59 67 66 69 65 72 79 82 86 98 98 93 87 83 81 77 76 73 67 60 56 52 50 48 47 49 49 50 49 41 38 38
22 17 10 1 7 5 9 19 9 32 32 35 35 47 50 49 65 60 58 58 62 63 62 69 77 83 84 94 93 87 82 79 75 73 72 68 61 56 55 52 52 50 49 49 48 44 42 45 41
35 39 39 9 9 5 4 19 3 8 11 20 31 45 37 38 43 46 50 42 52 51 55 58 64 72 72 74 81 79 73 72 69 65 63 65 62 59 56 56 55 54 51 45 48 47 45 44 41
Wind_Direction_850mb
348 352 353 5 245 312 89 135 9 147 176 165 151 195 310 6 341 25 157 166 161 162 156 148 144 147 147 142 139 136 131 122 132 127 109 106 113 113 113 105 99 95 108 98 96 101 93 91 92
348 351 354 340 293 323 79 134 196 150 132 140 153 155 217 72 99 136 149 164 166 166 161 156 149 151 152 150 147 134 121 103 121 136 110 118 121 118 112 111 107 103 97 98 100 96 93 93 97
347 352 341 356 7 10 14 188 164 142 137 164 171 215 210 25 204 167 167 167 163 170 169 166 156 156 157 154 152 141 117 84 112 134 128 123 119 117 111 113 105 102 110 97 96 98 95 96 96
358 348 25 304 328 64 324 126 161 157 171 182 172 181 271 194 177 168 166 167 164 165 175 171 164 167 165 160 156 154 140 96 106 115 123 129 125 122 119 123 118 110 109 99 99 98 100 101 95
15 359 303 295 314 314 291 250 174 174 154 191 200 175 200 206 185 171 167 168 171 169 167 182 167 172 173 165 164 159 155 131 128 131 128 124 125 125 126 123 124 120 116 100 101 106 104 97 94
108 357 270 278 303 309 288 203 174 187 166 168 212 181 179 196 172 172 171 172 174 177 169 175 177 178 175 170 170 170 158 143 129 127 129 119 118 123 124 131 117 115 112 113 113 106 101 98 97
161 237 288 286 296 289 345 164 188 195 185 202 187 216 210 197 181 179 177 177 183 181 180 175 183 182 178 177 175 182 186 176 160 133 141 139 133 121 111 114 122 128 128 122 112 109 104 101 97
134 183 236 242 277 306 20 198 190 210 202 199 189 229 224 203 183 179 184 185 187 183 185 178 183 179 177 182 183 187 188 185 176 158 149 147 143 141 140 141 142 143 134 127 128 116 104 100 96
173 228 210 235 211 171 29 237 215 219 204 196 203 218 222 197 185 185 188 190 191 189 183 189 184 190 188 188 195 208 215 197 179 177 158 153 159 163 158 155 153 151 149 151 137 118 112 105 98
225 239 233 187 192 180 170 230 273 223 209 226 219 225 220 195 195 195 196 194 196 196 187 189 191 194 197 204 210 219 223 203 191 193 189 186 181 182 189 182 177 173 168 167 160 142 120 94 33
243 237 243 194 178 177 180 183 196 234 233 238 249 223 216 198 201 205 206 204 203 200 196 190 190 193 197 206 209 215 222 207 196 201 203 204 202 202 200 200 198 194 195 193 193 190 239 292 283
230 248 244 203 196 183 200 166 191 218 242 257 283 225 227 210 211 211 210 207 204 201 198 195 192 194 194 201 207 208 205 204 202 205 208 210 210 211 210 207 206 207 209 214 224 250 275 284 284
232 244 231 220 209 223 214 211 212 234 250 264 261 254 233 226 220 216 215 216 211 208 199 197 200 198 199 197 200 204 204 205 207 211 212 212 212 214 211 212 212 214 217 223 233 254 270 279 285
280 238 244 236 239 227 242 243 196 225 238 258 251 247 242 234 228 218 215 216 216 217 210 206 205 208 207 203 202 205 207 206 209 210 210 213 213 216 216 217 218 220 225 234 243 256 265 273 281
243 261 248 244 242 246 237 247 235 233 234 246 258 246 244 240 227 229 226 221 220 219 218 215 215 210 212 213 211 212 212 214 215 216 213 214 217 216 219 221 222 226 231 236 245 256 267 275 283
226 242 248 237 220 236 220 254 243 237 226 238 240 241 244 243 238 232 228 227 223 222 223 220 221 221 220 219 219 220 220 220 219 220 222 220 220 222 225 228 229 232 236 241 248 257 265 272 279
219 237 230 237 216 240 217 252 249 239 222 235 235 239 238 241 243 237 231 230 227 225 226 224 223 225 226 225 226 227 227 227 226 224 226 228 228 229 231 233 233 236 240 243 249 255 263 272 278
225 228 238 239 203 222 243 246 253 249 245 243 239 241 241 236 244 245 240 231 229 226 227 229 227 226 227 229 229 230 231 230 230 229 228 229 232 233 236 237 238 241 244 248 252 259 264 268 273
257 245 242 236 243 231 242 244 252 250 244 245 244 233 244 242 245 240 243 239 232 230 227 228 229 227 226 227 229 230 233 233 235 233 233 230 234 235 239 241 242 245 248 252 255 258 261 269 274
244 243 241 254 239 233 259 256 261 253 248 248 252 249 244 246 243 240 235 235 238 236 232 231 232 232 230 230 232 234 238 239 239 241 241 238 238 239 242 244 246 247 251 253 256 258 265 268 269
227 237 232 243 234 244 272 268 261 259 252 252 251 250 251 245 242 237 236 237 239 240 241 235 234 235 235 233 234 236 239 240 238 240 243 242 241 243 246 246 248 251 252 254 257 260 263 266 268
231 220 236 236 245 254 216 277 262 263 260 244 247 243 243 242 238 236 234 238 239 241 244 243 239 236 237 235 234 236 239 242 244 246 247 247 247 248 249 250 251 254 256 257 259 261 263 265 266
240 227 227 235 237 262 253 265 266 253 259 248 245 242 241 239 235 236 237 241 242 243 242 244 242 240 238 238 237 238 241 245 247 247 249 249 249 248 250 251 253 255 256 258 260 261 261 263 267
249 239 229 231 233 231 239 221 253 246 253 259 252 244 244 243 239 239 238 244 245 244 241 238 236 238 238 239 240 239 243 245 245 245 249 250 249 248 247 249 251 254 256 257 258 260 262 263 265
203 192 220 204 205 230 229 229 239 264 244 251 254 254 250 247 242 239 238 238 241 242 240 239 238 239 239 240 242 242 243 243 245 247 249 251 251 251 249 249 252 255 258 259 258 259 261 263 264
221 217 213 239 184 231 135 233 240 243 245 259 256 257 258 255 257 249 239 244 239 241 243 244 241 239 238 240 241 243 242 242 244 244 247 249 250 251 252 249 250 252 254 254 255 257 259 261 263
168 216 230 289 336 310 214 258 277 236 243 249 252 257 255 257 262 256 245 248 249 244 246 246 245 243 239 239 244 245 241 238 241 243 245 248 249 249 247 247 247 248 250 253 253 255 259 262 264
216 168 161 193 249 243 215 248 247 215 231 240 247 247 254 259 264 260 255 251 251 251 250 247 245 246 244 243 241 243 241 239 240 241 242 244 246 246 245 245 245 245 247 248 250 255 256 256 262
189 210 199 244 198 254 259 240 253 222 215 236 247 254 263 265 265 275 273 260 254 252 248 244 237 239 241 241 240 239 237 237 239 241 242 242 243 244 245 245 244 244 244 245 248 249 251 254 261
204 216 210 230 211 247 329 266 105 307 319 284 281 285 288 278 278 275 272 264 243 249 248 240 234 236 241 241 236 236 235 235 239 242 241 238 238 242 242 242 243 243 244 241 245 248 244 254 252